Location: Columbia
(38.9520°N, 92.3340°W)
Time: 12:19:43
(UTC-05:00)

FENGYUN 3A - Visible Passes

Search period start: 16 August 2017 00:00
Search period end: 26 August 2017 00:00
Orbit: 818 x 834 km, 98.4° (Epoch: 16 August)

Date Brightness Start Highest point End Pass type
(mag) Time Alt. Az. Time Alt. Az. Time Alt. Az.
17 Aug 6.5 21:24:52 10° WSW 21:27:20 13° W 21:29:49 10° WNW visible
18 Aug 6.2 21:04:20 10° SW 21:08:13 20° W 21:12:08 10° NW visible
19 Aug 5.6 20:44:30 10° SSW 20:49:09 30° W 20:53:51 10° NW visible
20 Aug 4.9 20:25:03 10° S 20:30:09 45° W 20:35:17 10° NNW visible
22 Aug 6.6 21:31:35 10° WSW 21:33:06 11° W 21:34:39 10° WNW visible
23 Aug 6.3 21:10:28 10° SW 21:13:58 18° W 21:17:29 10° NW visible
24 Aug 5.8 20:50:28 10° SSW 20:54:53 26° W 20:59:21 10° NW visible
25 Aug 5.1 20:30:53 10° SSW 20:35:51 39° W 20:40:52 10° NNW visible
